Lid_Strength_Index
11 9 10 9 9 9 11 11 13 11 11 10 9 8 8 7 7 6 6 5 5 5 4 5 6 5 3 4 4 2 2 2 2 2 2 2 2 2 2 2 2 2 3 3
12 9 9 10 9 9 9 9 11 11 12 9 7 7 7 7 7 7 6 6 5 4 4 4 4 4 4 4 2 2 2 2 2 2 2 2 2 3 2 2 2 3 3 3
15 10 10 12 9 9 10 10 11 12 10 8 9 8 8 7 7 7 6 5 5 4 4 4 3 3 3 2 2 2 2 2 2 2 2 3 2 2 2 3 3 4 4 4
14 12 18 10 7 9 11 10 9 9 9 8 8 7 6 6 6 6 5 5 5 4 4 3 3 3 2 2 2 3 4 4 4 3 3 2 2 3 2 3 3 4 4 6
14 16 12 10 8 9 11 12 9 10 8 8 7 7 7 5 5 4 5 4 4 3 3 3 3 3 4 4 5 4 5 5 5 5 5 2 2 3 3 3 3 3 4 6
13 16 17 10 8 6 8 14 8 8 8 8 7 12 9 5 5 5 4 4 4 3 3 4 5 4 5 5 5 5 6 6 6 4 3 2 2 3 3 2 4 4 5 7
14 15 12 8 6 6 14 12 8 7 7 8 9 8 6 5 5 4 4 5 5 5 5 6 5 4 4 5 6 6 7 7 7 5 5 4 3 2 3 4 5 6 7 8
13 15 15 8 8 12 9 8 7 6 6 7 6 6 6 5 7 6 6 6 6 6 6 6 6 6 6 6 7 7 7 7 7 6 6 6 5 3 3 4 5 7 7 8
12 12 9 8 8 7 6 7 7 6 5 5 6 6 5 6 7 7 6 6 6 6 7 6 6 6 8 8 8 8 8 7 7 6 6 7 6 6 5 5 6 7 8 8
11 10 9 7 6 6 5 6 5 5 5 5 6 6 6 6 6 7 6 6 6 6 6 6 7 7 7 8 7 8 7 7 7 7 7 7 7 6 6 7 7 7 8 8
11 9 8 7 6 6 5 5 5 4 4 5 5 5 5 6 5 5 5 5 6 6 6 6 6 6 6 6 6 7 7 7 8 9 8 9 9 9 8 9 7 7 7 6
12 8 9 8 6 5 5 5 5 5 5 4 4 5 4 4 5 5 4 5 5 6 6 5 5 5 5 6 6 7 8 9 9 10 10 10 8 9 10 10 11 11 9 8
8 6 6 6 5 4 5 5 4 4 4 5 5 5 5 4 4 4 4 4 5 5 4 5 5 5 4 5 6 7 8 8 8 8 9 10 10 10 10 11 11 12 12 11
6 6 7 6 6 5 4 4 4 4 4 4 4 4 4 4 3 4 4 5 4 4 5 5 5 4 3 3 4 6 7 7 7 7 8 9 9 10 11 11 11 11 12 12
6 5 5 6 5 5 4 4 5 5 5 4 4 4 4 4 4 3 4 4 4 4 4 4 4 3 2 4 5 6 6 6 7 7 7 7 8 9 10 10 11 11 11 11
6 5 5 6 6 5 4 5 6 5 5 4 4 4 4 3 3 4 4 4 5 5 4 4 4 3 3 4 5 6 5 5 7 9 8 7 7 8 8 8 10 10 11 11
7 7 6 6 5 5 5 4 5 5 4 4 4 4 4 3 3 3 3 3 3 3 3 3 3 3 4 5 7 10 9 10 7 8 9 9 7 9 7 8 9 9 9 9
4 5 5 5 5 5 5 4 4 4 4 4 3 4 4 4 4 4 4 3 3 3 3 3 4 5 5 6 7 9 9 8 8 8 8 9 9 9 9 9 7 7 8 9
4 4 4 4 4 4 4 4 4 3 3 3 4 4 4 4 4 4 4 3 4 4 4 4 3 4 6 5 7 8 8 7 6 6 7 7 7 6 7 6 6 7 7 8
4 4 4 4 4 4 4 4 4 4 3 3 4 4 4 4 3 3 4 4 3 2 3 4 4 4 5 5 4 6 5 6 6 7 6 5 5 5 6 7 6 7 8 8
4 4 4 4 4 3 3 3 4 4 3 3 3 4 4 3 3 3 3 4 2 3 4 4 6 5 6 6 5 5 5 6 6 6 6 6 6 6 6 8 8 6 6 6
4 4 4 4 4 4 3 3 3 3 3 3 3 3 4 3 3 3 2 3 4 6 5 6 5 5 5 4 6 6 6 6 6 6 5 6 6 6 6 6 6 6 6 7
4 4 4 4 4 4 4 3 4 3 4 4 3 3 3 3 3 4 4 4 5 6 6 6 4 4 5 5 5 6 5 5 5 5 6 6 6 6 5 5 6 6 6 6
3 4 4 3 3 4 5 4 4 4 4 3 3 4 4 4 6 4 5 6 7 6 5 5 5 5 5 6 6 5 5 5 6 6 6 7 5 5 5 5 6 6 7 7
3 4 4 4 5 5 4 3 3 3 4 3 4 5 5 5 5 6 6 6 7 5 5 6 6 6 5 5 5 5 6 5 5 5 5 5 5 6 6 6 7 7 8 8
4 4 3 3 3 3 3 3 4 3 4 4 4 4 4 5 5 5 5 5 5 6 5 5 5 5 5 4 5 5 5 5 5 5 5 5 6 6 7 7 8 8 9 9
3 5 3 4 3 3 3 3 4 4 4 4 5 5 5 5 5 5 6 5 6 5 5 5 5 5 5 5 5 6 7 6 6 5 6 6 7 7 7 8 8 9 9 10